LOT4PJ LIPZ-EDLW

Flight info

Callsign LOT4PJ
Flight time 1h 14m
Altitude 18000
Route ROKIB6Q ROKIB Z906 NAXAV L12 UNIMI/N0457F340 L12 MOGTI DCT OLASO DCT GUPIN DCT OSBAN DCT SOGMI Z850 ADEMI ADEMI2A
Aircraft B38M/M-SDE1FGHILORVWXY/HB1

Departure

Time 2026-05-07 11:35
Airport Venice Marco Polo Airport (LIPZ)

Arrival

Time 2026-05-07 12:50
Airport Dortmund Airport (EDLW)
Time Latitude Longitude Altitude Speed Heading
2026-05-07 10:58 45.50645 12.34125 17 ft 0 kts 225°
2026-05-07 11:21 45.50648 12.34130 16 ft 2 kts 225°
2026-05-07 11:22 45.50662 12.34149 18 ft 3 kts 221°
2026-05-07 11:22 45.50678 12.34168 18 ft 3 kts 217°
2026-05-07 11:22 45.50695 12.34184 18 ft 3 kts 208°
2026-05-07 11:22 45.50713 12.34194 17 ft 3 kts 188°
2026-05-07 11:23 45.50729 12.34192 17 ft 2 kts 142°
2026-05-07 11:23 45.50733 12.34187 17 ft 1 kts 129°
2026-05-07 11:25 45.50729 12.34193 17 ft 2 kts 129°
2026-05-07 11:25 45.50703 12.34238 15 ft 12 kts 130°
2026-05-07 11:26 45.50614 12.34383 17 ft 27 kts 129°
2026-05-07 11:26 45.50605 12.34697 17 ft 37 kts 87°
2026-05-07 11:26 45.50642 12.35002 14 ft 33 kts 46°
2026-05-07 11:26 45.50836 12.35249 19 ft 41 kts 43°
2026-05-07 11:27 45.51066 12.35550 17 ft 48 kts 42°
2026-05-07 11:27 45.51278 12.35819 15 ft 26 kts 43°
2026-05-07 11:27 45.51413 12.35988 18 ft 27 kts 40°
2026-05-07 11:27 45.51550 12.36169 21 ft 27 kts 43°
2026-05-07 11:28 45.51675 12.36345 20 ft 22 kts 62°
2026-05-07 11:28 45.51685 12.36387 20 ft 0 kts 74°
2026-05-07 11:33 45.51688 12.36405 20 ft 4 kts 78°
2026-05-07 11:33 45.51679 12.36478 20 ft 11 kts 119°
2026-05-07 11:34 45.51607 12.36562 18 ft 13 kts 185°
2026-05-07 11:34 45.51556 12.36524 19 ft 1 kts 220°
2026-05-07 11:34 45.51533 12.36495 18 ft 24 kts 224°
2026-05-07 11:35 45.51145 12.35999 13 ft 123 kts 221°
2026-05-07 11:35 45.50320 12.34934 145 ft 192 kts 223°
2026-05-07 11:35 45.49214 12.33502 767 ft 236 kts 223°
2026-05-07 11:35 45.47893 12.31795 1637 ft 276 kts 222°
2026-05-07 11:36 45.46386 12.29869 2678 ft 306 kts 222°
2026-05-07 11:36 45.44758 12.27800 3866 ft 327 kts 222°
2026-05-07 11:36 45.43022 12.25572 5193 ft 343 kts 222°
2026-05-07 11:36 45.41233 12.23257 6545 ft 353 kts 225°
2026-05-07 11:37 45.39786 12.20458 7333 ft 349 kts 245°
2026-05-07 11:37 45.39270 12.17147 7565 ft 343 kts 272°
2026-05-07 11:37 45.39917 12.13922 7740 ft 342 kts 301°
2026-05-07 11:37 45.41483 12.11388 7925 ft 344 kts 316°
2026-05-07 11:38 45.42917 12.08682 7949 ft 343 kts 292°
2026-05-07 11:38 45.43289 12.05402 7993 ft 343 kts 264°
2026-05-07 11:38 45.42605 12.02164 8009 ft 344 kts 242°
2026-05-07 11:38 45.41261 11.99361 8003 ft 345 kts 238°
2026-05-07 11:39 45.40475 11.96187 7879 ft 343 kts 265°
2026-05-07 11:39 45.40887 11.92894 8013 ft 342 kts 296°
2026-05-07 11:39 45.42411 11.90323 8452 ft 345 kts 324°
2026-05-07 11:39 45.44417 11.88397 8981 ft 349 kts 324°
2026-05-07 11:40 45.46584 11.86834 9447 ft 352 kts 345°
2026-05-07 11:40 45.49028 11.86433 9970 ft 355 kts 356°
2026-05-07 11:40 45.51505 11.86182 10468 ft 358 kts 355°
2026-05-07 11:40 45.54010 11.85911 10959 ft 361 kts 355°
2026-05-07 11:41 45.56527 11.85633 11463 ft 364 kts 355°
2026-05-07 11:41 45.59026 11.85355 11951 ft 366 kts 355°
2026-05-07 11:41 45.61573 11.85071 12455 ft 369 kts 355°
2026-05-07 11:41 45.64143 11.84784 12962 ft 372 kts 355°
2026-05-07 11:42 45.66717 11.84496 13451 ft 374 kts 355°
2026-05-07 11:42 45.69329 11.84204 13953 ft 377 kts 355°
2026-05-07 11:42 45.71949 11.83810 14443 ft 380 kts 347°
2026-05-07 11:42 45.74406 11.82439 14945 ft 381 kts 333°
2026-05-07 11:43 45.76808 11.80785 15442 ft 385 kts 334°
2026-05-07 11:43 45.79236 11.79122 15941 ft 388 kts 334°
2026-05-07 11:43 45.81686 11.77433 16441 ft 391 kts 334°
2026-05-07 11:43 45.84149 11.75728 16940 ft 396 kts 334°
2026-05-07 11:44 45.86651 11.73996 17442 ft 401 kts 334°
2026-05-07 11:44 45.89171 11.72255 17944 ft 405 kts 334°
2026-05-07 11:44 45.91680 11.70520 18431 ft 406 kts 334°
2026-05-07 11:44 45.94271 11.68726 18937 ft 409 kts 334°
2026-05-07 11:45 45.96817 11.66960 19429 ft 413 kts 334°
2026-05-07 11:45 45.99417 11.65156 19928 ft 416 kts 334°
2026-05-07 11:45 46.02025 11.63343 20419 ft 416 kts 334°
2026-05-07 11:45 46.04647 11.61520 20927 ft 420 kts 334°
2026-05-07 11:46 46.07299 11.59673 21419 ft 425 kts 334°
2026-05-07 11:46 46.09975 11.57808 21919 ft 430 kts 334°
2026-05-07 11:46 46.12664 11.55932 22417 ft 433 kts 334°
2026-05-07 11:46 46.15383 11.54032 22917 ft 436 kts 334°
2026-05-07 11:47 46.18125 11.52115 23414 ft 439 kts 334°
2026-05-07 11:47 46.20871 11.50192 23908 ft 440 kts 334°
2026-05-07 11:47 46.23631 11.48257 24409 ft 443 kts 334°
2026-05-07 11:47 46.26369 11.46335 24900 ft 445 kts 334°
2026-05-07 11:48 46.29166 11.44371 25405 ft 448 kts 334°
2026-05-07 11:48 46.31976 11.42394 25896 ft 450 kts 334°
2026-05-07 11:48 46.34763 11.40432 26393 ft 451 kts 334°
2026-05-07 11:48 46.37605 11.38429 26895 ft 453 kts 334°
2026-05-07 11:49 46.40449 11.36422 27395 ft 454 kts 334°
2026-05-07 11:49 46.43281 11.34421 27898 ft 455 kts 334°
2026-05-07 11:49 46.46118 11.32447 28387 ft 453 kts 335°
2026-05-07 11:49 46.48999 11.30608 28889 ft 452 kts 336°
2026-05-07 11:50 46.51846 11.28781 29381 ft 451 kts 336°
2026-05-07 11:50 46.54713 11.26930 29874 ft 451 kts 335°
2026-05-07 11:50 46.57569 11.25083 30379 ft 451 kts 335°
2026-05-07 11:50 46.60436 11.23226 30860 ft 451 kts 335°
2026-05-07 11:51 46.63294 11.21372 31355 ft 451 kts 335°
2026-05-07 11:51 46.66159 11.19511 31865 ft 450 kts 335°
2026-05-07 11:51 46.69018 11.17652 32354 ft 448 kts 335°
2026-05-07 11:51 46.71850 11.15809 32845 ft 446 kts 335°
2026-05-07 11:52 46.74680 11.13965 33318 ft 444 kts 335°
2026-05-07 11:52 46.77493 11.12130 33800 ft 442 kts 335°
2026-05-07 11:52 46.80311 11.10289 34017 ft 448 kts 335°
2026-05-07 11:53 46.85945 11.06595 33997 ft 455 kts 335°
2026-05-07 11:53 46.91698 11.02747 34010 ft 452 kts 335°
2026-05-07 11:54 46.97406 10.98997 34000 ft 449 kts 335°
2026-05-07 11:54 47.03108 10.95274 34005 ft 453 kts 335°
2026-05-07 11:55 47.08850 10.91513 34000 ft 452 kts 335°
2026-05-07 11:55 47.14585 10.87747 33998 ft 451 kts 335°
2026-05-07 11:56 47.20324 10.83970 34004 ft 451 kts 335°
2026-05-07 11:56 47.25957 10.80253 33993 ft 446 kts 335°
2026-05-07 11:57 47.31633 10.76500 33993 ft 448 kts 335°
2026-05-07 11:57 47.37347 10.72713 34003 ft 449 kts 335°
2026-05-07 11:58 47.43130 10.69311 34004 ft 446 kts 338°
2026-05-07 11:58 47.48892 10.65954 33994 ft 445 kts 338°
2026-05-07 11:59 47.54673 10.62566 34005 ft 447 kts 338°
2026-05-07 11:59 47.60398 10.59202 33998 ft 444 kts 338°
2026-05-07 12:00 47.66143 10.55818 33999 ft 444 kts 338°
2026-05-07 12:00 47.71869 10.52438 33999 ft 444 kts 338°
2026-05-07 12:01 47.77602 10.49045 34001 ft 443 kts 338°
2026-05-07 12:01 47.83299 10.45666 34000 ft 443 kts 338°
2026-05-07 12:02 47.89041 10.42252 34001 ft 444 kts 338°
2026-05-07 12:02 47.94750 10.38849 33999 ft 443 kts 338°
2026-05-07 12:03 48.00463 10.35435 34001 ft 442 kts 338°
2026-05-07 12:03 48.06183 10.32009 34001 ft 442 kts 338°
2026-05-07 12:04 48.11894 10.28581 34001 ft 442 kts 338°
2026-05-07 12:04 48.17593 10.25152 34001 ft 442 kts 338°
2026-05-07 12:05 48.23172 10.21447 34009 ft 441 kts 334°
2026-05-07 12:05 48.28730 10.17482 34001 ft 442 kts 334°
2026-05-07 12:06 48.34282 10.13547 33998 ft 441 kts 334°
2026-05-07 12:06 48.38907 10.10264 34000 ft 441 kts 334°
2026-05-07 12:07 48.44441 10.06327 34001 ft 441 kts 334°
2026-05-07 12:07 48.50003 10.02360 34001 ft 442 kts 334°
2026-05-07 12:08 48.55558 9.98389 34000 ft 442 kts 334°
2026-05-07 12:08 48.61125 9.94399 34001 ft 442 kts 334°
2026-05-07 12:09 48.66638 9.90439 33999 ft 442 kts 334°
2026-05-07 12:09 48.72198 9.86434 34001 ft 442 kts 334°
2026-05-07 12:10 48.77755 9.82423 34002 ft 441 kts 334°
2026-05-07 12:10 48.83293 9.78415 33998 ft 441 kts 334°
2026-05-07 12:11 48.88842 9.74503 33998 ft 441 kts 337°
2026-05-07 12:11 48.94518 9.70912 34000 ft 442 kts 337°
2026-05-07 12:12 49.00184 9.67274 34000 ft 441 kts 337°
2026-05-07 12:12 49.05840 9.63631 34000 ft 441 kts 336°
2026-05-07 12:13 49.11435 9.60017 34000 ft 441 kts 336°
2026-05-07 12:13 49.17094 9.56353 33998 ft 440 kts 336°
2026-05-07 12:14 49.22737 9.52690 33999 ft 440 kts 336°
2026-05-07 12:14 49.28374 9.49022 34000 ft 440 kts 336°
2026-05-07 12:15 49.33994 9.45356 33999 ft 440 kts 336°
2026-05-07 12:15 49.39603 9.41688 33999 ft 440 kts 336°
2026-05-07 12:16 49.45247 9.38029 33996 ft 440 kts 340°
2026-05-07 12:16 49.51116 9.35388 34002 ft 441 kts 343°
2026-05-07 12:17 49.57000 9.32804 34002 ft 441 kts 343°
2026-05-07 12:17 49.62893 9.30215 33990 ft 441 kts 343°
2026-05-07 12:17 49.65849 9.28914 33670 ft 440 kts 343°
2026-05-07 12:18 49.68796 9.27615 33208 ft 440 kts 343°
2026-05-07 12:18 49.71699 9.26335 32713 ft 439 kts 343°
2026-05-07 12:18 49.74635 9.25037 32224 ft 440 kts 343°
2026-05-07 12:18 49.77585 9.23733 31731 ft 441 kts 343°
2026-05-07 12:19 49.80529 9.22429 31235 ft 442 kts 343°
2026-05-07 12:19 49.83481 9.21120 30745 ft 443 kts 343°
2026-05-07 12:19 49.86454 9.19800 30242 ft 444 kts 343°
2026-05-07 12:19 49.89422 9.18480 30022 ft 445 kts 343°
2026-05-07 12:20 49.92426 9.17143 29984 ft 447 kts 343°
2026-05-07 12:20 49.98407 9.14475 30000 ft 447 kts 343°
2026-05-07 12:21 50.04340 9.11822 30000 ft 448 kts 343°
2026-05-07 12:21 50.10300 9.09150 30017 ft 448 kts 343°
2026-05-07 12:22 50.16261 9.06471 29498 ft 440 kts 343°
2026-05-07 12:22 50.19192 9.05151 28998 ft 435 kts 343°
2026-05-07 12:22 50.22082 9.03848 28495 ft 430 kts 343°
2026-05-07 12:22 50.24940 9.02557 27996 ft 426 kts 343°
2026-05-07 12:23 50.27757 9.01284 27503 ft 422 kts 343°
2026-05-07 12:23 50.30557 9.00017 27004 ft 418 kts 343°
2026-05-07 12:23 50.33344 8.98753 26504 ft 414 kts 343°
2026-05-07 12:23 50.36093 8.97506 26008 ft 410 kts 343°
2026-05-07 12:24 50.38826 8.96265 25511 ft 407 kts 343°
2026-05-07 12:24 50.41540 8.95030 25007 ft 404 kts 343°
2026-05-07 12:24 50.44228 8.93807 24515 ft 401 kts 343°
2026-05-07 12:24 50.46900 8.92590 24019 ft 399 kts 343°
2026-05-07 12:25 50.49556 8.91378 23514 ft 396 kts 343°
2026-05-07 12:25 50.52128 8.90075 22955 ft 392 kts 335°
2026-05-07 12:25 50.54345 8.87927 22036 ft 390 kts 322°
2026-05-07 12:25 50.56503 8.85360 21046 ft 389 kts 323°
2026-05-07 12:26 50.58661 8.82812 20054 ft 388 kts 322°
2026-05-07 12:26 50.60808 8.80250 19054 ft 386 kts 322°
2026-05-07 12:26 50.62941 8.77693 18059 ft 385 kts 322°
2026-05-07 12:26 50.65060 8.75145 17064 ft 382 kts 322°
2026-05-07 12:27 50.67171 8.72603 16067 ft 380 kts 322°
2026-05-07 12:27 50.69269 8.70073 15073 ft 377 kts 322°
2026-05-07 12:27 50.71338 8.67575 14075 ft 375 kts 322°
2026-05-07 12:27 50.73395 8.65089 13099 ft 371 kts 322°
2026-05-07 12:28 50.75402 8.62659 12128 ft 368 kts 322°
2026-05-07 12:28 50.77427 8.60207 11144 ft 365 kts 322°
2026-05-07 12:28 50.79429 8.57778 10148 ft 362 kts 322°
2026-05-07 12:28 50.81419 8.55363 9183 ft 358 kts 322°
2026-05-07 12:29 50.83339 8.53028 8971 ft 333 kts 322°
2026-05-07 12:29 50.85070 8.50923 9018 ft 304 kts 322°
2026-05-07 12:29 50.86716 8.48918 9022 ft 297 kts 322°
2026-05-07 12:29 50.88377 8.46892 9001 ft 296 kts 322°
2026-05-07 12:30 50.89987 8.44928 8998 ft 296 kts 322°
2026-05-07 12:30 50.91612 8.42944 8998 ft 296 kts 322°
2026-05-07 12:30 50.93242 8.40951 9000 ft 296 kts 322°
2026-05-07 12:30 50.94869 8.38961 9000 ft 296 kts 322°
2026-05-07 12:31 50.96508 8.36954 8999 ft 297 kts 322°
2026-05-07 12:31 50.98140 8.34954 9000 ft 297 kts 322°
2026-05-07 12:31 50.99776 8.32948 9000 ft 297 kts 322°
2026-05-07 12:31 51.01403 8.30959 8998 ft 297 kts 323°
2026-05-07 12:32 51.03171 8.29281 8775 ft 297 kts 331°
2026-05-07 12:32 51.04965 8.27711 8353 ft 293 kts 330°
2026-05-07 12:32 51.06738 8.26126 7857 ft 296 kts 330°
2026-05-07 12:32 51.08519 8.24515 7349 ft 290 kts 330°
2026-05-07 12:33 51.11914 8.21497 6367 ft 276 kts 330°
2026-05-07 12:33 51.13564 8.20033 6082 ft 263 kts 330°
2026-05-07 12:33 51.15079 8.18685 6071 ft 240 kts 330°
2026-05-07 12:34 51.16468 8.17446 6058 ft 222 kts 330°
2026-05-07 12:34 51.17791 8.16266 6049 ft 219 kts 330°
2026-05-07 12:34 51.19123 8.15076 6024 ft 219 kts 330°
2026-05-07 12:34 51.20455 8.13888 6019 ft 219 kts 330°
2026-05-07 12:35 51.21785 8.12697 5997 ft 219 kts 330°
2026-05-07 12:35 51.23116 8.11504 5997 ft 219 kts 330°
2026-05-07 12:35 51.24445 8.10314 6011 ft 219 kts 330°
2026-05-07 12:35 51.25772 8.09125 6007 ft 219 kts 329°
2026-05-07 12:36 51.27101 8.07927 5997 ft 219 kts 330°
2026-05-07 12:36 51.28430 8.06736 5992 ft 219 kts 330°
2026-05-07 12:36 51.29759 8.05544 5998 ft 219 kts 330°
2026-05-07 12:36 51.31087 8.04351 5998 ft 219 kts 330°
2026-05-07 12:37 51.32416 8.03158 6015 ft 219 kts 330°
2026-05-07 12:37 51.33732 8.01973 5997 ft 219 kts 330°
2026-05-07 12:37 51.35042 8.00793 5997 ft 219 kts 330°
2026-05-07 12:37 51.36374 7.99592 6007 ft 219 kts 330°
2026-05-07 12:38 51.37687 7.98408 6008 ft 218 kts 330°
2026-05-07 12:38 51.39012 7.97213 6000 ft 218 kts 330°
2026-05-07 12:38 51.40333 7.96020 6000 ft 218 kts 330°
2026-05-07 12:38 51.41660 7.94825 6004 ft 219 kts 330°
2026-05-07 12:39 51.42985 7.93633 5997 ft 218 kts 330°
2026-05-07 12:39 51.44308 7.92441 5993 ft 218 kts 330°
2026-05-07 12:39 51.45632 7.91247 5736 ft 217 kts 330°
2026-05-07 12:39 51.46954 7.90047 5301 ft 218 kts 328°
2026-05-07 12:40 51.48013 7.88328 4772 ft 220 kts 298°
2026-05-07 12:40 51.48571 7.86042 4293 ft 220 kts 288°
2026-05-07 12:40 51.49030 7.83686 3823 ft 222 kts 287°
2026-05-07 12:40 51.49467 7.81299 3341 ft 223 kts 286°
2026-05-07 12:41 51.49884 7.78932 3061 ft 215 kts 285°
2026-05-07 12:41 51.50265 7.76716 3008 ft 198 kts 285°
2026-05-07 12:41 51.50612 7.74667 2985 ft 187 kts 285°
2026-05-07 12:41 51.50947 7.72677 2997 ft 186 kts 284°
2026-05-07 12:42 51.51284 7.70668 2995 ft 186 kts 285°
2026-05-07 12:42 51.51614 7.68672 2998 ft 183 kts 284°
2026-05-07 12:42 51.51934 7.66738 3032 ft 178 kts 285°
2026-05-07 12:42 51.52245 7.64819 3001 ft 177 kts 281°
2026-05-07 12:43 51.52128 7.62897 2934 ft 174 kts 248°
2026-05-07 12:43 51.51606 7.61125 3051 ft 176 kts 244°
2026-05-07 12:43 51.51066 7.59399 3152 ft 171 kts 243°
2026-05-07 12:43 51.50525 7.57738 3092 ft 167 kts 242°
2026-05-07 12:44 51.49986 7.56124 3038 ft 166 kts 242°
2026-05-07 12:44 51.49432 7.54493 2995 ft 166 kts 241°
2026-05-07 12:44 51.48877 7.52879 2995 ft 166 kts 241°
2026-05-07 12:44 51.48319 7.51263 3029 ft 166 kts 242°
2026-05-07 12:45 51.47748 7.49656 2969 ft 166 kts 239°
2026-05-07 12:45 51.47157 7.48071 2977 ft 166 kts 239°
2026-05-07 12:45 51.46569 7.46502 3030 ft 160 kts 239°
2026-05-07 12:45 51.46032 7.44971 3034 ft 156 kts 243°
2026-05-07 12:46 51.45695 7.43341 2942 ft 156 kts 275°
2026-05-07 12:46 51.46259 7.41956 2749 ft 152 kts 330°
2026-05-07 12:46 51.47292 7.41890 2819 ft 157 kts 24°
2026-05-07 12:46 51.47898 7.43235 2861 ft 158 kts 84°
2026-05-07 12:47 51.47808 7.44985 2998 ft 158 kts 98°
2026-05-07 12:47 51.47639 7.46740 3181 ft 160 kts 95°
2026-05-07 12:47 51.47650 7.48504 3211 ft 153 kts 79°
2026-05-07 12:47 51.47976 7.50045 3192 ft 144 kts 65°
2026-05-07 12:48 51.48444 7.51543 2838 ft 151 kts 62°
2026-05-07 12:48 51.48957 7.53053 2317 ft 154 kts 60°
2026-05-07 12:48 51.49481 7.54534 1798 ft 151 kts 60°
2026-05-07 12:48 51.49989 7.55990 1354 ft 146 kts 60°
2026-05-07 12:49 51.50317 7.56921 1099 ft 143 kts 60°
2026-05-07 12:49 51.50808 7.58306 826 ft 147 kts 60°
2026-05-07 12:49 51.51291 7.59705 607 ft 138 kts 60°
2026-05-07 12:49 51.51875 7.61338 422 ft 111 kts 60°
2026-05-07 12:50 51.52133 7.62077 411 ft 40 kts 60°
2026-05-07 12:50 51.52184 7.62288 410 ft 21 kts 116°
2026-05-07 12:50 51.52105 7.62382 412 ft 0 kts 148°
2026-05-07 12:50 51.52093 7.62391 412 ft 4 kts 162°
2026-05-07 12:51 51.52056 7.62376 412 ft 7 kts 218°
2026-05-07 12:51 51.52023 7.62303 413 ft 9 kts 238°
2026-05-07 12:51 51.51988 7.62204 415 ft 11 kts 240°
2026-05-07 12:51 51.51965 7.62142 413 ft 3 kts 239°
2026-05-07 12:52 51.51951 7.62103 408 ft 0 kts 239°
2026-05-07 12:52 51.51950 7.62101 409 ft 0 kts 240°
2026-05-07 12:52 51.51932 7.62049 414 ft 10 kts 240°
2026-05-07 12:53 51.51895 7.61942 413 ft 12 kts 241°
2026-05-07 12:53 51.51855 7.61829 415 ft 10 kts 240°
2026-05-07 12:53 51.51817 7.61719 415 ft 12 kts 240°
2026-05-07 12:53 51.51783 7.61625 418 ft 9 kts 240°
2026-05-07 12:54 51.51762 7.61564 423 ft 5 kts 240°
2026-05-07 12:54 51.51739 7.61539 417 ft 3 kts 181°
2026-05-07 12:54 51.51717 7.61533 422 ft 4 kts 203°
2026-05-07 12:54 51.51702 7.61513 424 ft 5 kts 230°
2026-05-07 12:55 51.51669 7.61428 428 ft 11 kts 240°
2026-05-07 12:55 51.51642 7.61368 426 ft 3 kts 214°
2026-05-07 12:55 51.51616 7.61348 428 ft 0 kts 189°
2026-05-07 12:55 51.51626 7.61347 430 ft 3 kts 162°
2026-05-07 12:56 51.51604 7.61362 435 ft 0 kts 151°
2026-05-07 12:56 51.51600 7.61366 435 ft 3 kts 150°
2026-05-07 12:56 51.51599 7.61366 435 ft 0 kts 150°